Location: Peterborough
(44.3091°N, 78.3197°W)
Time: 02:55:00
(UTC-04:00)

Vanguard 3 - Pass Details

Date: 29 March 2023
Orbit: 507 x 3246 km, 33.4° (Epoch: 08 June)

Event Time Altitude Azimuth Distance (km) Brightness Sun altitude
Rises 01:35:41 0° 209° (SSW) 5,864 - -42.2°
Reaches altitude 10° 01:39:42 10° 200° (SSW) 5,201 - -42.2°
Maximum altitude 01:53:33 34° 144° (SE) 4,316 - -41.7°
Exits shadow 01:56:22 33° 130° (SE) 4,456 10.5 -41.6°
Drops below altitude 10° 02:09:46 10° 89° (E) 6,125 11.7 -41.0°
Sets 02:14:59 0° 82° (E) 7,000 12.2 -40.7°
